Wetterdaten: Mittwoch, 09.03.2016
Datum Zeit Temperatur Luftfeuchte Luftdruck Regen Wind Richtung Richtung Sonnenschein ET UV Solar Taupunkt Windchill Windben
09.03.2016 00:00 -2,7 C 93 % 1016,5 hPa 0,0 l/m 0,0 km/h (0 Bft) NW 308 0 min 0,000 mm 0,0 UV-I 0 W/m -3,7 C -2,7 C 0,0 km/h (0 Bft)
09.03.2016 00:05 -2,7 C 93 % 1016,6 hPa 0,0 l/m 0,0 km/h (0 Bft) NW 308 0 min 0,000 mm 0,0 UV-I 0 W/m -3,7 C -2,7 C 0,0 km/h (0 Bft)
09.03.2016 00:10 -2,8 C 93 % 1016,5 hPa 0,0 l/m 0,0 km/h (0 Bft) NW 308 0 min 0,000 mm 0,0 UV-I 0 W/m -3,8 C -2,8 C 0,0 km/h (0 Bft)
09.03.2016 00:15 -2,8 C 93 % 1016,5 hPa 0,0 l/m 0,0 km/h (0 Bft) NW 308 0 min 0,000 mm 0,0 UV-I 0 W/m -3,8 C -2,8 C 0,0 km/h (0 Bft)
09.03.2016 00:20 -2,8 C 93 % 1016,5 hPa 0,0 l/m 0,0 km/h (0 Bft) NW 308 0 min 0,000 mm 0,0 UV-I 0 W/m -3,8 C -2,8 C 0,0 km/h (0 Bft)
09.03.2016 00:25 -2,8 C 93 % 1016,5 hPa 0,0 l/m 0,0 km/h (0 Bft) NW 308 0 min 0,000 mm 0,0 UV-I 0 W/m -3,8 C -2,8 C 0,0 km/h (0 Bft)
09.03.2016 00:30 -2,9 C 94 % 1016,5 hPa 0,0 l/m 0,0 km/h (0 Bft) NW 308 0 min 0,000 mm 0,0 UV-I 0 W/m -3,7 C -2,9 C 0,0 km/h (0 Bft)
09.03.2016 00:35 -2,9 C 94 % 1016,4 hPa 0,0 l/m 0,0 km/h (0 Bft) NW 308 0 min 0,000 mm 0,0 UV-I 0 W/m -3,7 C -2,9 C 0,0 km/h (0 Bft)
09.03.2016 00:40 -3,0 C 94 % 1016,5 hPa 0,0 l/m 0,0 km/h (0 Bft) NW 308 0 min 0,000 mm 0,0 UV-I 0 W/m -3,8 C -3,0 C 0,0 km/h (0 Bft)
09.03.2016 00:45 -3,0 C 94 % 1016,4 hPa 0,0 l/m 0,0 km/h (0 Bft) NW 308 0 min 0,000 mm 0,0 UV-I 0 W/m -3,8 C -3,0 C 0,0 km/h (0 Bft)
09.03.2016 00:50 -3,0 C 94 % 1016,3 hPa 0,0 l/m 0,0 km/h (0 Bft) NW 308 0 min 0,000 mm 0,0 UV-I 0 W/m -3,8 C -3,0 C 0,0 km/h (0 Bft)
09.03.2016 00:55 -3,0 C 94 % 1016,3 hPa 0,0 l/m 0,0 km/h (0 Bft) NW 308 0 min 0,000 mm 0,0 UV-I 0 W/m -3,8 C -3,0 C 0,0 km/h (0 Bft)
09.03.2016 01:00 -3,0 C 94 % 1016,2 hPa 0,0 l/m 0,0 km/h (0 Bft) NW 308 0 min 0,000 mm 0,0 UV-I 0 W/m -3,8 C -3,0 C 0,0 km/h (0 Bft)
09.03.2016 01:05 -2,9 C 94 % 1016,3 hPa 0,0 l/m 0,0 km/h (0 Bft) NW 308 0 min 0,000 mm 0,0 UV-I 0 W/m -3,7 C -2,9 C 0,0 km/h (0 Bft)
09.03.2016 01:10 -2,9 C 94 % 1016,2 hPa 0,0 l/m 0,0 km/h (0 Bft) NW 308 0 min 0,000 mm 0,0 UV-I 0 W/m -3,7 C -2,9 C 0,0 km/h (0 Bft)
09.03.2016 01:15 -2,8 C 94 % 1016,3 hPa 0,0 l/m 0,0 km/h (0 Bft) NW 308 0 min 0,000 mm 0,0 UV-I 0 W/m -3,6 C -2,8 C 0,0 km/h (0 Bft)
09.03.2016 01:20 -2,8 C 94 % 1016,2 hPa 0,0 l/m 0,0 km/h (0 Bft) NW 308 0 min 0,000 mm 0,0 UV-I 0 W/m -3,6 C -2,8 C 0,0 km/h (0 Bft)
09.03.2016 01:25 -2,8 C 94 % 1016,2 hPa 0,0 l/m 0,0 km/h (0 Bft) NW 308 0 min 0,000 mm 0,0 UV-I 0 W/m -3,6 C -2,8 C 0,0 km/h (0 Bft)
09.03.2016 01:30 -2,7 C 94 % 1016,1 hPa 0,0 l/m 0,0 km/h (0 Bft) NW 308 0 min 0,000 mm 0,0 UV-I 0 W/m -3,5 C -2,7 C 0,0 km/h (0 Bft)
09.03.2016 01:35 -2,7 C 94 % 1016,1 hPa 0,0 l/m 0,0 km/h (0 Bft) NW 308 0 min 0,000 mm 0,0 UV-I 0 W/m -3,5 C -2,7 C 0,0 km/h (0 Bft)
09.03.2016 01:40 -2,7 C 94 % 1016,1 hPa 0,0 l/m 0,0 km/h (0 Bft) NW 308 0 min 0,000 mm 0,0 UV-I 0 W/m -3,5 C -2,7 C 0,0 km/h (0 Bft)
09.03.2016 01:45 -2,6 C 94 % 1016,1 hPa 0,0 l/m 0,0 km/h (0 Bft) NW 308 0 min 0,000 mm 0,0 UV-I 0 W/m -3,4 C -2,6 C 0,0 km/h (0 Bft)
09.03.2016 01:50 -2,7 C 94 % 1016,2 hPa 0,0 l/m 0,0 km/h (0 Bft) NW 308 0 min 0,000 mm 0,0 UV-I 0 W/m -3,5 C -2,7 C 0,0 km/h (0 Bft)
09.03.2016 01:55 -2,7 C 94 % 1016,1 hPa 0,0 l/m 0,0 km/h (0 Bft) NW 308 0 min 0,000 mm 0,0 UV-I 0 W/m -3,5 C -2,7 C 0,0 km/h (0 Bft)
09.03.2016 02:00 -2,8 C 94 % 1016,0 hPa 0,0 l/m 0,0 km/h (0 Bft) NW 308 0 min 0,000 mm 0,0 UV-I 0 W/m -3,6 C -2,8 C 0,0 km/h (0 Bft)
09.03.2016 02:05 -2,8 C 94 % 1015,9 hPa 0,0 l/m 0,0 km/h (0 Bft) NW 308 0 min 0,000 mm 0,0 UV-I 0 W/m -3,6 C -2,8 C 0,0 km/h (0 Bft)
09.03.2016 02:10 -2,8 C 94 % 1015,8 hPa 0,0 l/m 0,0 km/h (0 Bft) NW 308 0 min 0,000 mm 0,0 UV-I 0 W/m -3,6 C -2,8 C 0,0 km/h (0 Bft)
09.03.2016 02:15 -2,9 C 94 % 1015,7 hPa 0,0 l/m 0,0 km/h (0 Bft) NW 308 0 min 0,000 mm 0,0 UV-I 0 W/m -3,7 C -2,9 C 0,0 km/h (0 Bft)
09.03.2016 02:20 -2,9 C 94 % 1015,6 hPa 0,0 l/m 0,0 km/h (0 Bft) NW 308 0 min 0,000 mm 0,0 UV-I 0 W/m -3,7 C -2,9 C 0,0 km/h (0 Bft)
09.03.2016 02:25 -3,0 C 94 % 1015,6 hPa 0,0 l/m 0,0 km/h (0 Bft) NW 308 0 min 0,000 mm 0,0 UV-I 0 W/m -3,8 C -3,0 C 0,0 km/h (0 Bft)
09.03.2016 02:30 -3,1 C 94 % 1015,4 hPa 0,0 l/m 0,0 km/h (0 Bft) NW 308 0 min 0,000 mm 0,0 UV-I 0 W/m -3,9 C -3,1 C 0,0 km/h (0 Bft)
09.03.2016 02:35 -3,2 C 94 % 1015,3 hPa 0,0 l/m 0,0 km/h (0 Bft) NW 308 0 min 0,000 mm 0,0 UV-I 0 W/m -4,0 C -3,2 C 0,0 km/h (0 Bft)
09.03.2016 02:40 -3,2 C 94 % 1015,2 hPa 0,0 l/m 0,0 km/h (0 Bft) NW 308 0 min 0,000 mm 0,0 UV-I 0 W/m -4,0 C -3,2 C 0,0 km/h (0 Bft)
09.03.2016 02:45 -3,1 C 94 % 1015,0 hPa 0,0 l/m 0,0 km/h (0 Bft) O-NO 58 0 min 0,000 mm 0,0 UV-I 0 W/m -3,9 C -3,1 C 0,0 km/h (0 Bft)
09.03.2016 02:50 -2,9 C 95 % 1014,9 hPa 0,0 l/m 0,0 km/h (0 Bft) O-NO 58 0 min 0,000 mm 0,0 UV-I 0 W/m -3,6 C -2,9 C 0,0 km/h (0 Bft)
09.03.2016 02:55 -2,9 C 95 % 1014,9 hPa 0,0 l/m 0,0 km/h (0 Bft) O-NO 58 0 min 0,000 mm 0,0 UV-I 0 W/m -3,6 C -2,9 C 0,0 km/h (0 Bft)
09.03.2016 03:00 -2,9 C 94 % 1014,9 hPa 0,0 l/m 0,0 km/h (0 Bft) O-NO 59 0 min 0,000 mm 0,0 UV-I 0 W/m -3,7 C -2,9 C 0,0 km/h (0 Bft)
09.03.2016 03:05 -2,8 C 95 % 1014,8 hPa 0,0 l/m 0,0 km/h (0 Bft) O 82 0 min 0,000 mm 0,0 UV-I 0 W/m -3,5 C -2,8 C 0,0 km/h (0 Bft)
09.03.2016 03:10 -2,8 C 95 % 1014,8 hPa 0,0 l/m 0,3 km/h (0 Bft) O-NO 61 0 min 0,000 mm 0,0 UV-I 0 W/m -3,5 C -2,8 C 4,8 km/h (1 Bft)
09.03.2016 03:15 -2,7 C 95 % 1014,8 hPa 0,0 l/m 0,4 km/h (0 Bft) O-NO 61 0 min 0,000 mm 0,0 UV-I 0 W/m -3,4 C -2,7 C 3,2 km/h (1 Bft)
09.03.2016 03:20 -2,5 C 95 % 1014,8 hPa 0,0 l/m 0,4 km/h (0 Bft) NO 46 0 min 0,000 mm 0,0 UV-I 0 W/m -3,2 C -2,5 C 4,8 km/h (1 Bft)
09.03.2016 03:25 -2,3 C 95 % 1014,8 hPa 0,0 l/m 1,3 km/h (1 Bft) O-NO 76 0 min 0,000 mm 0,0 UV-I 0 W/m -3,0 C -2,3 C 8,0 km/h (2 Bft)
09.03.2016 03:30 -2,3 C 95 % 1014,7 hPa 0,0 l/m 1,0 km/h (0 Bft) O-NO 74 0 min 0,000 mm 0,0 UV-I 0 W/m -3,0 C -2,3 C 6,4 km/h (2 Bft)
09.03.2016 03:35 -2,2 C 95 % 1014,7 hPa 0,0 l/m 0,8 km/h (0 Bft) O-NO 58 0 min 0,000 mm 0,0 UV-I 0 W/m -2,9 C -2,2 C 4,8 km/h (1 Bft)
09.03.2016 03:40 -2,1 C 95 % 1014,6 hPa 0,0 l/m 0,1 km/h (0 Bft) O-NO 74 0 min 0,000 mm 0,0 UV-I 0 W/m -2,8 C -2,1 C 3,2 km/h (1 Bft)
09.03.2016 03:45 -2,1 C 95 % 1014,6 hPa 0,0 l/m 0,0 km/h (0 Bft) O-NO 74 0 min 0,000 mm 0,0 UV-I 0 W/m -2,8 C -2,1 C 0,0 km/h (0 Bft)
09.03.2016 03:50 -2,1 C 95 % 1014,5 hPa 0,0 l/m 0,9 km/h (0 Bft) NO 54 0 min 0,000 mm 0,0 UV-I 0 W/m -2,8 C -2,1 C 6,4 km/h (2 Bft)
09.03.2016 03:55 -2,0 C 95 % 1014,4 hPa 0,0 l/m 0,0 km/h (0 Bft) NO 54 0 min 0,000 mm 0,0 UV-I 0 W/m -2,7 C -2,0 C 0,0 km/h (0 Bft)
09.03.2016 04:00 -2,0 C 96 % 1014,4 hPa 0,0 l/m 0,0 km/h (0 Bft) NO 54 0 min 0,000 mm 0,0 UV-I 0 W/m -2,6 C -2,0 C 0,0 km/h (0 Bft)
09.03.2016 04:05 -1,9 C 96 % 1014,3 hPa 0,0 l/m 0,0 km/h (0 Bft) NO 54 0 min 0,000 mm 0,0 UV-I 0 W/m -2,5 C -1,9 C 0,0 km/h (0 Bft)
09.03.2016 04:10 -1,9 C 96 % 1014,3 hPa 0,0 l/m 0,0 km/h (0 Bft) O-NO 57 0 min 0,000 mm 0,0 UV-I 0 W/m -2,5 C -1,9 C 0,0 km/h (0 Bft)
09.03.2016 04:15 -1,8 C 96 % 1014,2 hPa 0,0 l/m 0,0 km/h (0 Bft) NO 47 0 min 0,000 mm 0,0 UV-I 0 W/m -2,4 C -1,8 C 0,0 km/h (0 Bft)
09.03.2016 04:20 -1,8 C 96 % 1014,2 hPa 0,0 l/m 0,0 km/h (0 Bft) O-NO 66 0 min 0,000 mm 0,0 UV-I 0 W/m -2,4 C -1,8 C 0,0 km/h (0 Bft)
09.03.2016 04:25 -1,8 C 96 % 1014,2 hPa 0,0 l/m 0,0 km/h (0 Bft) O-NO 64 0 min 0,000 mm 0,0 UV-I 0 W/m -2,4 C -1,8 C 0,0 km/h (0 Bft)
09.03.2016 04:30 -1,8 C 96 % 1014,1 hPa 0,0 l/m 0,0 km/h (0 Bft) NO 52 0 min 0,000 mm 0,0 UV-I 0 W/m -2,4 C -1,8 C 0,0 km/h (0 Bft)
09.03.2016 04:35 -1,8 C 96 % 1014,1 hPa 0,0 l/m 0,0 km/h (0 Bft) O 84 0 min 0,000 mm 0,0 UV-I 0 W/m -2,4 C -1,8 C 0,0 km/h (0 Bft)
09.03.2016 04:40 -1,7 C 96 % 1014,1 hPa 0,0 l/m 0,0 km/h (0 Bft) O 83 0 min 0,000 mm 0,0 UV-I 0 W/m -2,3 C -1,7 C 0,0 km/h (0 Bft)
09.03.2016 04:45 -1,7 C 96 % 1014,0 hPa 0,0 l/m 0,0 km/h (0 Bft) NO 48 0 min 0,000 mm 0,0 UV-I 0 W/m -2,3 C -1,7 C 0,0 km/h (0 Bft)
09.03.2016 04:50 -1,7 C 96 % 1014,0 hPa 0,0 l/m 0,0 km/h (0 Bft) NO 48 0 min 0,000 mm 0,0 UV-I 0 W/m -2,3 C -1,7 C 0,0 km/h (0 Bft)
09.03.2016 04:55 -1,6 C 96 % 1014,0 hPa 0,0 l/m 0,0 km/h (0 Bft) NO 49 0 min 0,000 mm 0,0 UV-I 0 W/m -2,2 C -1,6 C 0,0 km/h (0 Bft)
09.03.2016 05:00 -1,6 C 96 % 1013,9 hPa 0,0 l/m 0,0 km/h (0 Bft) O-NO 72 0 min 0,000 mm 0,0 UV-I 0 W/m -2,2 C -1,6 C 0,0 km/h (0 Bft)
09.03.2016 05:05 -1,5 C 96 % 1013,9 hPa 0,0 l/m 0,0 km/h (0 Bft) NO 43 0 min 0,000 mm 0,0 UV-I 0 W/m -2,1 C -1,5 C 0,0 km/h (0 Bft)
09.03.2016 05:10 -1,4 C 96 % 1013,9 hPa 0,0 l/m 0,0 km/h (0 Bft) O-NO 61 0 min 0,000 mm 0,0 UV-I 0 W/m -2,0 C -1,4 C 0,0 km/h (0 Bft)
09.03.2016 05:15 -1,4 C 96 % 1013,9 hPa 0,0 l/m 0,0 km/h (0 Bft) O-NO 61 0 min 0,000 mm 0,0 UV-I 0 W/m -2,0 C -1,4 C 0,0 km/h (0 Bft)
09.03.2016 05:20 -1,4 C 96 % 1013,8 hPa 0,0 l/m 0,0 km/h (0 Bft) O-NO 61 0 min 0,000 mm 0,0 UV-I 0 W/m -2,0 C -1,4 C 0,0 km/h (0 Bft)
09.03.2016 05:25 -1,4 C 96 % 1013,7 hPa 0,0 l/m 0,0 km/h (0 Bft) O 79 0 min 0,000 mm 0,0 UV-I 0 W/m -2,0 C -1,4 C 0,0 km/h (0 Bft)
09.03.2016 05:30 -1,3 C 96 % 1013,8 hPa 0,0 l/m 0,0 km/h (0 Bft) O 79 0 min 0,000 mm 0,0 UV-I 0 W/m -1,9 C -1,3 C 0,0 km/h (0 Bft)
09.03.2016 05:35 -1,3 C 95 % 1013,8 hPa 0,0 l/m 0,0 km/h (0 Bft) O 79 0 min 0,000 mm 0,0 UV-I 0 W/m -2,0 C -1,3 C 0,0 km/h (0 Bft)
09.03.2016 05:40 -1,3 C 96 % 1013,7 hPa 0,0 l/m 0,0 km/h (0 Bft) O-NO 57 0 min 0,000 mm 0,0 UV-I 0 W/m -1,9 C -1,3 C 0,0 km/h (0 Bft)
09.03.2016 05:45 -1,3 C 96 % 1013,6 hPa 0,0 l/m 0,0 km/h (0 Bft) O 94 0 min 0,000 mm 0,0 UV-I 0 W/m -1,9 C -1,3 C 0,0 km/h (0 Bft)
09.03.2016 05:50 -1,3 C 95 % 1013,6 hPa 0,0 l/m 0,0 km/h (0 Bft) O-NO 65 0 min 0,000 mm 0,0 UV-I 0 W/m -2,0 C -1,3 C 0,0 km/h (0 Bft)
09.03.2016 05:55 -1,2 C 95 % 1013,6 hPa 0,0 l/m 0,0 km/h (0 Bft) O-NO 65 0 min 0,000 mm 0,0 UV-I 0 W/m -1,9 C -1,2 C 0,0 km/h (0 Bft)
09.03.2016 06:00 -1,2 C 95 % 1013,5 hPa 0,0 l/m 0,0 km/h (0 Bft) O-NO 63 0 min 0,000 mm 0,0 UV-I 0 W/m -1,9 C -1,2 C 1,6 km/h (1 Bft)
09.03.2016 06:05 -1,2 C 95 % 1013,4 hPa 0,0 l/m 0,0 km/h (0 Bft) NO 44 0 min 0,000 mm 0,0 UV-I 0 W/m -1,9 C -1,2 C 1,6 km/h (1 Bft)
09.03.2016 06:10 -1,2 C 95 % 1013,4 hPa 0,0 l/m 0,0 km/h (0 Bft) S 182 0 min 0,000 mm 0,0 UV-I 0 W/m -1,9 C -1,2 C 0,0 km/h (0 Bft)
09.03.2016 06:15 -1,1 C 94 % 1013,3 hPa 0,0 l/m 0,0 km/h (0 Bft) O 98 0 min 0,000 mm 0,0 UV-I 0 W/m -1,9 C -1,1 C 1,6 km/h (1 Bft)
09.03.2016 06:20 -1,1 C 94 % 1013,2 hPa 0,0 l/m 0,0 km/h (0 Bft) O-SO 109 0 min 0,000 mm 0,0 UV-I 0 W/m -1,9 C -1,1 C 0,0 km/h (0 Bft)
09.03.2016 06:25 -1,0 C 94 % 1013,2 hPa 0,0 l/m 0,0 km/h (0 Bft) O-SO 107 0 min 0,000 mm 0,0 UV-I 0 W/m -1,8 C -1,0 C 1,6 km/h (1 Bft)
09.03.2016 06:30 -1,0 C 93 % 1013,2 hPa 0,0 l/m 0,0 km/h (0 Bft) O-NO 66 0 min 0,000 mm 0,0 UV-I 0 W/m -2,0 C -1,0 C 0,0 km/h (0 Bft)
09.03.2016 06:35 -1,1 C 93 % 1013,2 hPa 0,0 l/m 0,0 km/h (0 Bft) O-NO 66 0 min 0,000 mm 0,0 UV-I 0 W/m -2,1 C -1,1 C 0,0 km/h (0 Bft)
09.03.2016 06:40 -1,0 C 93 % 1013,2 hPa 0,0 l/m 0,0 km/h (0 Bft) O-SO 115 0 min 0,000 mm 0,0 UV-I 0 W/m -2,0 C -1,0 C 0,0 km/h (0 Bft)
09.03.2016 06:45 -1,0 C 93 % 1013,1 hPa 0,0 l/m 0,0 km/h (0 Bft) O-SO 111 0 min 0,000 mm 0,0 UV-I 0 W/m -2,0 C -1,0 C 0,0 km/h (0 Bft)
09.03.2016 06:50 -1,0 C 93 % 1013,0 hPa 0,0 l/m 0,0 km/h (0 Bft) O-NO 63 0 min 0,000 mm 0,0 UV-I 1 W/m -2,0 C -1,0 C 0,0 km/h (0 Bft)
09.03.2016 06:55 -1,1 C 93 % 1013,0 hPa 0,0 l/m 0,0 km/h (0 Bft) O 84 0 min 0,000 mm 0,0 UV-I 5 W/m -2,1 C -1,1 C 0,0 km/h (0 Bft)
09.03.2016 07:00 -1,2 C 92 % 1012,9 hPa 0,0 l/m 0,0 km/h (0 Bft) O 91 0 min 0,000 mm 0,0 UV-I 8 W/m -2,3 C -1,2 C 0,0 km/h (0 Bft)
09.03.2016 07:05 -1,2 C 92 % 1012,9 hPa 0,0 l/m 0,9 km/h (0 Bft) NO 44 5 min 0,000 mm 0,0 UV-I 12 W/m -2,3 C -1,2 C 8,0 km/h (2 Bft)
09.03.2016 07:10 -1,3 C 92 % 1012,9 hPa 0,0 l/m 1,2 km/h (1 Bft) O 92 0 min 0,000 mm 0,0 UV-I 15 W/m -2,4 C -1,3 C 6,4 km/h (2 Bft)
09.03.2016 07:15 -1,3 C 92 % 1012,9 hPa 0,0 l/m 0,3 km/h (0 Bft) O-NO 67 0 min 0,000 mm 0,0 UV-I 17 W/m -2,4 C -1,3 C 4,8 km/h (1 Bft)
09.03.2016 07:20 -1,4 C 93 % 1013,0 hPa 0,0 l/m 0,9 km/h (0 Bft) NO 42 0 min 0,000 mm 0,0 UV-I 18 W/m -2,4 C -1,4 C 6,4 km/h (2 Bft)
09.03.2016 07:25 -1,5 C 93 % 1012,9 hPa 0,0 l/m 4,4 km/h (1 Bft) O 82 0 min 0,000 mm 0,0 UV-I 23 W/m -2,5 C -1,5 C 9,7 km/h (2 Bft)
09.03.2016 07:30 -1,6 C 93 % 1012,8 hPa 0,0 l/m 8,9 km/h (2 Bft) NO 49 0 min 0,000 mm 0,0 UV-I 26 W/m -2,6 C -4,2 C 14,5 km/h (3 Bft)
09.03.2016 07:35 -1,6 C 94 % 1012,8 hPa 0,0 l/m 7,4 km/h (2 Bft) O-NO 57 0 min 0,000 mm 0,0 UV-I 32 W/m -2,4 C -2,7 C 14,5 km/h (3 Bft)
09.03.2016 07:40 -1,6 C 94 % 1012,8 hPa 0,0 l/m 5,0 km/h (1 Bft) O-NO 63 0 min 0,000 mm 0,0 UV-I 27 W/m -2,4 C -1,6 C 14,5 km/h (3 Bft)
09.03.2016 07:45 -1,6 C 94 % 1012,6 hPa 0,0 l/m 4,7 km/h (1 Bft) NO 36 0 min 0,000 mm 0,0 UV-I 26 W/m -2,4 C -1,6 C 12,9 km/h (3 Bft)
09.03.2016 07:50 -1,5 C 94 % 1012,5 hPa 0,0 l/m 4,3 km/h (1 Bft) O-NO 74 0 min 0,000 mm 0,0 UV-I 25 W/m -2,3 C -1,5 C 11,3 km/h (2 Bft)
09.03.2016 07:55 -1,4 C 94 % 1012,5 hPa 0,0 l/m 5,1 km/h (1 Bft) O 96 0 min 0,000 mm 0,0 UV-I 35 W/m -2,2 C -1,4 C 11,3 km/h (2 Bft)
09.03.2016 08:00 -1,3 C 94 % 1012,4 hPa 0,0 l/m 4,2 km/h (1 Bft) O-NO 65 0 min 0,000 mm 0,0 UV-I 35 W/m -2,1 C -1,3 C 11,3 km/h (2 Bft)
09.03.2016 08:05 -1,2 C 94 % 1012,3 hPa 0,0 l/m 3,8 km/h (1 Bft) O 98 0 min 0,000 mm 0,0 UV-I 46 W/m -2,0 C -1,2 C 11,3 km/h (2 Bft)
09.03.2016 08:10 -1,1 C 94 % 1012,3 hPa 0,0 l/m 5,6 km/h (1 Bft) O 91 0 min 0,000 mm 0,0 UV-I 62 W/m -1,9 C -1,1 C 14,5 km/h (3 Bft)
09.03.2016 08:15 -1,1 C 94 % 1012,1 hPa 0,0 l/m 5,2 km/h (1 Bft) NO 43 0 min 0,000 mm 0,0 UV-I 68 W/m -1,9 C -1,1 C 12,9 km/h (3 Bft)
09.03.2016 08:20 -0,9 C 94 % 1012,1 hPa 0,0 l/m 3,2 km/h (1 Bft) O-SO 105 0 min 0,000 mm 0,0 UV-I 80 W/m -1,7 C -0,9 C 9,7 km/h (2 Bft)
09.03.2016 08:25 -0,8 C 93 % 1012,0 hPa 0,0 l/m 1,4 km/h (1 Bft) N-NO 15 0 min 0,000 mm 0,0 UV-I 81 W/m -1,8 C -0,8 C 8,0 km/h (2 Bft)
09.03.2016 08:30 -0,8 C 93 % 1012,0 hPa 0,0 l/m 5,2 km/h (1 Bft) O-NO 59 0 min 0,000 mm 0,0 UV-I 80 W/m -1,8 C -0,8 C 11,3 km/h (2 Bft)
09.03.2016 08:35 -0,8 C 93 % 1012,0 hPa 0,0 l/m 5,1 km/h (1 Bft) O-NO 78 0 min 0,000 mm 0,2 UV-I 93 W/m -1,8 C -0,8 C 14,5 km/h (3 Bft)
09.03.2016 08:40 -0,7 C 93 % 1012,0 hPa 0,0 l/m 2,2 km/h (1 Bft) NO 52 0 min 0,000 mm 0,3 UV-I 86 W/m -1,7 C -0,7 C 12,9 km/h (3 Bft)
09.03.2016 08:45 -0,7 C 93 % 1012,1 hPa 0,0 l/m 5,0 km/h (1 Bft) O-NO 57 0 min 0,000 mm 0,1 UV-I 68 W/m -1,7 C -0,7 C 11,3 km/h (2 Bft)
09.03.2016 08:50 -0,6 C 93 % 1012,0 hPa 0,0 l/m 1,2 km/h (1 Bft) O 84 0 min 0,000 mm 0,3 UV-I 79 W/m -1,6 C -0,6 C 8,0 km/h (2 Bft)
09.03.2016 08:55 -0,6 C 93 % 1012,0 hPa 0,0 l/m 3,3 km/h (1 Bft) O-SO 107 0 min 0,000 mm 0,5 UV-I 86 W/m -1,6 C -0,6 C 9,7 km/h (2 Bft)
09.03.2016 09:00 -0,5 C 93 % 1011,9 hPa 0,0 l/m 1,3 km/h (1 Bft) NO 46 0 min 0,000 mm 0,5 UV-I 100 W/m -1,5 C -0,5 C 8,0 km/h (2 Bft)
09.03.2016 09:05 -0,4 C 92 % 1011,9 hPa 0,0 l/m 2,1 km/h (1 Bft) O 101 0 min 0,025 mm 0,5 UV-I 98 W/m -1,5 C -0,4 C 14,5 km/h (3 Bft)
09.03.2016 09:10 -0,4 C 92 % 1011,8 hPa 0,0 l/m 6,0 km/h (2 Bft) O 79 0 min 0,000 mm 0,5 UV-I 89 W/m -1,5 C -0,4 C 16,1 km/h (3 Bft)
09.03.2016 09:15 -0,3 C 92 % 1011,8 hPa 0,0 l/m 5,7 km/h (1 Bft) O-SO 117 0 min 0,000 mm 0,6 UV-I 117 W/m -1,4 C -0,3 C 16,1 km/h (3 Bft)
09.03.2016 09:20 -0,3 C 91 % 1011,8 hPa 0,0 l/m 5,6 km/h (1 Bft) O 98 0 min 0,000 mm 0,6 UV-I 125 W/m -1,6 C -0,3 C 14,5 km/h (3 Bft)
09.03.2016 09:25 -0,3 C 92 % 1011,8 hPa 0,0 l/m 4,3 km/h (1 Bft) O 96 0 min 0,000 mm 0,6 UV-I 105 W/m -1,4 C -0,3 C 12,9 km/h (3 Bft)
09.03.2016 09:30 -0,2 C 92 % 1011,7 hPa 0,0 l/m 3,3 km/h (1 Bft) SO 132 0 min 0,000 mm 0,6 UV-I 118 W/m -1,3 C -0,2 C 14,5 km/h (3 Bft)
09.03.2016 09:35 -0,1 C 92 % 1011,6 hPa 0,0 l/m 1,8 km/h (1 Bft) NO 46 0 min 0,000 mm 0,7 UV-I 134 W/m -1,2 C -0,1 C 8,0 km/h (2 Bft)
09.03.2016 09:40 0,0 C 92 % 1011,5 hPa 0,0 l/m 4,9 km/h (1 Bft) O 81 0 min 0,000 mm 0,7 UV-I 104 W/m -1,1 C 0,0 C 11,3 km/h (2 Bft)
09.03.2016 09:45 0,1 C 92 % 1011,5 hPa 0,0 l/m 5,2 km/h (1 Bft) NO 36 0 min 0,000 mm 0,6 UV-I 93 W/m -1,0 C 0,1 C 12,9 km/h (3 Bft)
09.03.2016 09:50 0,1 C 92 % 1011,5 hPa 0,0 l/m 4,9 km/h (1 Bft) O 88 0 min 0,000 mm 0,6 UV-I 87 W/m -1,0 C 0,1 C 11,3 km/h (2 Bft)
09.03.2016 09:55 0,1 C 91 % 1011,4 hPa 0,0 l/m 3,5 km/h (1 Bft) O 88 0 min 0,000 mm 0,5 UV-I 69 W/m -1,2 C 0,1 C 14,5 km/h (3 Bft)
09.03.2016 10:00 0,1 C 91 % 1011,3 hPa 0,0 l/m 8,4 km/h (2 Bft) O-SO 107 0 min 0,000 mm 0,1 UV-I 52 W/m -1,2 C -1,9 C 14,5 km/h (3 Bft)
09.03.2016 10:05 0,1 C 92 % 1011,3 hPa 0,0 l/m 5,8 km/h (2 Bft) O-SO 112 0 min 0,026 mm 0,4 UV-I 64 W/m -1,0 C 0,1 C 11,3 km/h (2 Bft)
09.03.2016 10:10 0,1 C 92 % 1011,2 hPa 0,0 l/m 8,2 km/h (2 Bft) O 98 0 min 0,000 mm 0,5 UV-I 65 W/m -1,0 C -1,7 C 17,7 km/h (3 Bft)
09.03.2016 10:15 0,1 C 92 % 1011,2 hPa 0,0 l/m 6,5 km/h (2 Bft) O 93 0 min 0,000 mm 0,6 UV-I 80 W/m -1,0 C 0,0 C 12,9 km/h (3 Bft)
09.03.2016 10:20 0,2 C 92 % 1011,1 hPa 0,0 l/m 1,3 km/h (1 Bft) O 93 0 min 0,000 mm 1,0 UV-I 174 W/m -0,9 C 0,2 C 11,3 km/h (2 Bft)
09.03.2016 10:25 0,4 C 92 % 1011,0 hPa 0,0 l/m 6,1 km/h (2 Bft) O 86 0 min 0,000 mm 1,0 UV-I 192 W/m -0,7 C 0,4 C 12,9 km/h (3 Bft)
09.03.2016 10:30 0,5 C 91 % 1010,8 hPa 0,0 l/m 7,6 km/h (2 Bft) O-NO 58 0 min 0,000 mm 1,2 UV-I 199 W/m -0,8 C -0,7 C 16,1 km/h (3 Bft)
09.03.2016 10:35 0,5 C 90 % 1010,8 hPa 0,0 l/m 9,5 km/h (2 Bft) O-NO 59 0 min 0,000 mm 1,1 UV-I 186 W/m -0,9 C -2,5 C 19,3 km/h (3 Bft)
09.03.2016 10:40 0,5 C 91 % 1010,8 hPa 0,0 l/m 7,9 km/h (2 Bft) O-NO 66 0 min 0,000 mm 1,1 UV-I 155 W/m -0,8 C -1,0 C 14,5 km/h (3 Bft)
09.03.2016 10:45 0,6 C 90 % 1010,7 hPa 0,0 l/m 7,0 km/h (2 Bft) NO 43 0 min 0,000 mm 1,1 UV-I 173 W/m -0,8 C -0,0 C 14,5 km/h (3 Bft)
09.03.2016 10:50 0,6 C 89 % 1010,7 hPa 0,0 l/m 7,9 km/h (2 Bft) O-NO 78 0 min 0,000 mm 1,2 UV-I 205 W/m -1,0 C -0,9 C 19,3 km/h (3 Bft)
09.03.2016 10:55 0,8 C 89 % 1010,6 hPa 0,0 l/m 7,4 km/h (2 Bft) O-NO 60 0 min 0,000 mm 1,5 UV-I 250 W/m -0,8 C -0,2 C 14,5 km/h (3 Bft)
09.03.2016 11:00 0,9 C 87 % 1010,6 hPa 0,0 l/m 8,1 km/h (2 Bft) O-NO 74 0 min 0,000 mm 1,5 UV-I 285 W/m -1,0 C -0,8 C 16,1 km/h (3 Bft)
09.03.2016 11:05 1,1 C 86 % 1010,5 hPa 0,0 l/m 8,8 km/h (2 Bft) O 88 0 min 0,076 mm 1,5 UV-I 232 W/m -1,0 C -1,2 C 19,3 km/h (3 Bft)
09.03.2016 11:10 1,2 C 86 % 1010,5 hPa 0,0 l/m 8,3 km/h (2 Bft) O 99 0 min 0,000 mm 1,6 UV-I 278 W/m -0,9 C -0,7 C 16,1 km/h (3 Bft)
09.03.2016 11:15 1,3 C 85 % 1010,5 hPa 0,0 l/m 10,8 km/h (2 Bft) O 84 0 min 0,000 mm 1,3 UV-I 233 W/m -0,9 C -2,6 C 20,9 km/h (4 Bft)
09.03.2016 11:20 1,3 C 84 % 1010,4 hPa 0,0 l/m 11,4 km/h (2 Bft) O 98 0 min 0,000 mm 1,5 UV-I 258 W/m -1,1 C -3,1 C 20,9 km/h (4 Bft)
09.03.2016 11:25 1,4 C 84 % 1010,3 hPa 0,0 l/m 11,3 km/h (2 Bft) O-SO 123 0 min 0,000 mm 1,5 UV-I 256 W/m -1,0 C -2,9 C 24,1 km/h (4 Bft)
09.03.2016 11:30 1,4 C 83 % 1010,2 hPa 0,0 l/m 14,5 km/h (3 Bft) O 101 0 min 0,000 mm 1,5 UV-I 249 W/m -1,2 C -5,0 C 27,4 km/h (4 Bft)
09.03.2016 11:35 1,5 C 84 % 1010,3 hPa 0,0 l/m 11,6 km/h (2 Bft) SO 130 0 min 0,000 mm 1,5 UV-I 242 W/m -0,9 C -3,0 C 24,1 km/h (4 Bft)
09.03.2016 11:40 1,8 C 83 % 1010,2 hPa 0,0 l/m 12,5 km/h (3 Bft) O 86 5 min 0,000 mm 1,9 UV-I 340 W/m -0,8 C -3,3 C 25,7 km/h (4 Bft)
09.03.2016 11:45 1,9 C 83 % 1010,1 hPa 0,0 l/m 10,0 km/h (2 Bft) O-SO 105 0 min 0,000 mm 1,9 UV-I 284 W/m -0,7 C -1,4 C 25,7 km/h (4 Bft)
09.03.2016 11:50 2,1 C 82 % 1010,1 hPa 0,0 l/m 10,5 km/h (2 Bft) NO 36 0 min 0,000 mm 1,9 UV-I 305 W/m -0,6 C -1,5 C 24,1 km/h (4 Bft)
09.03.2016 11:55 2,1 C 81 % 1010,1 hPa 0,0 l/m 12,5 km/h (3 Bft) O 96 0 min 0,000 mm 1,9 UV-I 280 W/m -0,8 C -2,9 C 24,1 km/h (4 Bft)
09.03.2016 12:00 2,1 C 81 % 1010,0 hPa 0,0 l/m 10,6 km/h (2 Bft) SO 142 0 min 0,000 mm 1,7 UV-I 234 W/m -0,8 C -1,6 C 20,9 km/h (4 Bft)
09.03.2016 12:05 2,3 C 80 % 1010,1 hPa 0,0 l/m 11,8 km/h (2 Bft) O 85 5 min 0,102 mm 1,7 UV-I 366 W/m -0,8 C -2,2 C 29,0 km/h (5 Bft)
09.03.2016 12:10 2,4 C 80 % 1009,9 hPa 0,0 l/m 11,0 km/h (2 Bft) O-SO 105 0 min 0,000 mm 1,7 UV-I 221 W/m -0,7 C -1,5 C 20,9 km/h (4 Bft)
09.03.2016 12:15 2,8 C 79 % 1010,0 hPa 0,0 l/m 7,5 km/h (2 Bft) O-SO 112 0 min 0,000 mm 1,9 UV-I 265 W/m -0,5 C 1,8 C 22,5 km/h (4 Bft)
09.03.2016 12:20 2,9 C 78 % 1009,9 hPa 0,0 l/m 9,1 km/h (2 Bft) O-SO 121 0 min 0,000 mm 2,0 UV-I 270 W/m -0,5 C 0,5 C 20,9 km/h (4 Bft)
09.03.2016 12:25 2,9 C 77 % 1009,9 hPa 0,0 l/m 10,6 km/h (2 Bft) S-SO 152 0 min 0,000 mm 1,6 UV-I 242 W/m -0,7 C -0,7 C 24,1 km/h (4 Bft)
09.03.2016 12:30 2,8 C 78 % 1009,8 hPa 0,0 l/m 10,1 km/h (2 Bft) S 174 0 min 0,000 mm 1,7 UV-I 273 W/m -0,6 C -0,4 C 20,9 km/h (4 Bft)
09.03.2016 12:35 3,2 C 78 % 1009,7 hPa 0,0 l/m 4,2 km/h (1 Bft) O 100 0 min 0,000 mm 1,9 UV-I 314 W/m -0,3 C 3,2 C 17,7 km/h (3 Bft)
09.03.2016 12:40 3,9 C 77 % 1009,6 hPa 0,0 l/m 3,9 km/h (1 Bft) SO 125 5 min 0,000 mm 2,1 UV-I 582 W/m 0,2 C 3,9 C 16,1 km/h (3 Bft)
09.03.2016 12:45 3,9 C 74 % 1009,6 hPa 0,0 l/m 6,2 km/h (2 Bft) O 88 5 min 0,000 mm 1,7 UV-I 336 W/m -0,3 C 3,9 C 16,1 km/h (3 Bft)
09.03.2016 12:50 3,5 C 75 % 1009,5 hPa 0,0 l/m 10,4 km/h (2 Bft) O-SO 103 5 min 0,000 mm 2,2 UV-I 343 W/m -0,5 C 0,1 C 24,1 km/h (4 Bft)
09.03.2016 12:55 4,2 C 74 % 1009,3 hPa 0,0 l/m 7,4 km/h (2 Bft) SO 136 5 min 0,000 mm 2,2 UV-I 558 W/m -0,0 C 3,3 C 19,3 km/h (3 Bft)
09.03.2016 13:00 4,2 C 72 % 1009,2 hPa 0,0 l/m 13,2 km/h (3 Bft) S-SO 150 5 min 0,000 mm 2,4 UV-I 622 W/m -0,4 C -0,9 C 29,0 km/h (5 Bft)
09.03.2016 13:05 4,5 C 74 % 1009,1 hPa 0,0 l/m 9,2 km/h (2 Bft) O-NO 63 5 min 0,177 mm 2,3 UV-I 651 W/m 0,3 C 2,1 C 22,5 km/h (4 Bft)
09.03.2016 13:10 4,7 C 74 % 1009,0 hPa 0,0 l/m 10,6 km/h (2 Bft) O-SO 104 5 min 0,000 mm 2,2 UV-I 510 W/m 0,5 C 1,3 C 19,3 km/h (3 Bft)
09.03.2016 13:15 4,6 C 73 % 1009,0 hPa 0,0 l/m 10,3 km/h (2 Bft) O 92 5 min 0,000 mm 2,3 UV-I 645 W/m 0,2 C 1,4 C 25,7 km/h (4 Bft)
09.03.2016 13:20 4,4 C 72 % 1009,0 hPa 0,0 l/m 10,4 km/h (2 Bft) O-SO 105 5 min 0,000 mm 1,8 UV-I 425 W/m -0,2 C 1,1 C 24,1 km/h (4 Bft)
09.03.2016 13:25 4,2 C 73 % 1008,9 hPa 0,0 l/m 10,0 km/h (2 Bft) O-NO 67 0 min 0,000 mm 1,8 UV-I 275 W/m -0,2 C 1,2 C 19,3 km/h (3 Bft)
09.03.2016 13:30 4,6 C 72 % 1008,9 hPa 0,0 l/m 9,3 km/h (2 Bft) O-NO 59 5 min 0,000 mm 1,9 UV-I 316 W/m -0,0 C 2,1 C 16,1 km/h (3 Bft)
09.03.2016 13:35 4,6 C 71 % 1008,7 hPa 0,0 l/m 9,9 km/h (2 Bft) O 93 5 min 0,000 mm 2,1 UV-I 454 W/m -0,2 C 1,7 C 20,9 km/h (4 Bft)
09.03.2016 13:40 4,9 C 70 % 1008,7 hPa 0,0 l/m 9,6 km/h (2 Bft) O 98 5 min 0,000 mm 2,1 UV-I 588 W/m -0,1 C 2,2 C 22,5 km/h (4 Bft)
09.03.2016 13:45 4,7 C 70 % 1008,7 hPa 0,0 l/m 10,2 km/h (2 Bft) O-SO 110 0 min 0,000 mm 1,7 UV-I 261 W/m -0,3 C 1,6 C 19,3 km/h (3 Bft)
09.03.2016 13:50 4,8 C 69 % 1008,7 hPa 0,0 l/m 10,7 km/h (2 Bft) O 84 0 min 0,000 mm 1,8 UV-I 220 W/m -0,4 C 1,4 C 24,1 km/h (4 Bft)
09.03.2016 13:55 4,7 C 68 % 1008,6 hPa 0,0 l/m 12,7 km/h (3 Bft) O 86 5 min 0,000 mm 2,0 UV-I 474 W/m -0,7 C -0,0 C 27,4 km/h (4 Bft)
09.03.2016 14:00 5,1 C 66 % 1008,5 hPa 0,0 l/m 9,9 km/h (2 Bft) O 94 5 min 0,000 mm 2,1 UV-I 571 W/m -0,7 C 2,3 C 19,3 km/h (3 Bft)
09.03.2016 14:05 5,9 C 65 % 1008,4 hPa 0,0 l/m 8,1 km/h (2 Bft) O-SO 103 5 min 0,204 mm 2,0 UV-I 574 W/m -0,2 C 4,5 C 24,1 km/h (4 Bft)
09.03.2016 14:10 5,4 C 65 % 1008,5 hPa 0,0 l/m 12,5 km/h (3 Bft) O 100 5 min 0,000 mm 1,7 UV-I 430 W/m -0,6 C 0,9 C 24,1 km/h (4 Bft)
09.03.2016 14:15 4,8 C 66 % 1008,4 hPa 0,0 l/m 14,2 km/h (3 Bft) SO 134 5 min 0,000 mm 1,8 UV-I 374 W/m -1,0 C -0,7 C 24,1 km/h (4 Bft)
09.03.2016 14:20 5,2 C 66 % 1008,4 hPa 0,0 l/m 12,0 km/h (2 Bft) O-SO 114 5 min 0,000 mm 1,9 UV-I 542 W/m -0,6 C 1,0 C 20,9 km/h (4 Bft)
09.03.2016 14:25 5,5 C 63 % 1008,3 hPa 0,0 l/m 13,4 km/h (3 Bft) O 96 5 min 0,000 mm 1,8 UV-I 526 W/m -1,0 C 0,5 C 25,7 km/h (4 Bft)
09.03.2016 14:30 5,1 C 64 % 1008,3 hPa 0,0 l/m 14,1 km/h (3 Bft) O-SO 112 5 min 0,000 mm 1,5 UV-I 315 W/m -1,1 C -0,3 C 27,4 km/h (4 Bft)
09.03.2016 14:35 4,9 C 65 % 1008,3 hPa 0,0 l/m 10,2 km/h (2 Bft) O 100 0 min 0,000 mm 1,5 UV-I 170 W/m -1,1 C 1,8 C 17,7 km/h (3 Bft)
09.03.2016 14:40 5,3 C 62 % 1008,3 hPa 0,0 l/m 11,8 km/h (2 Bft) O-SO 116 5 min 0,000 mm 1,6 UV-I 508 W/m -1,4 C 1,2 C 20,9 km/h (4 Bft)
09.03.2016 14:45 5,4 C 63 % 1008,2 hPa 0,0 l/m 9,9 km/h (2 Bft) S 188 5 min 0,000 mm 1,6 UV-I 516 W/m -1,1 C 2,6 C 19,3 km/h (3 Bft)
09.03.2016 14:50 5,7 C 62 % 1008,1 hPa 0,0 l/m 11,3 km/h (2 Bft) O 93 5 min 0,000 mm 1,6 UV-I 515 W/m -1,0 C 2,0 C 17,7 km/h (3 Bft)
09.03.2016 14:55 5,8 C 62 % 1008,1 hPa 0,0 l/m 12,8 km/h (3 Bft) O-NO 59 5 min 0,000 mm 1,5 UV-I 482 W/m -0,9 C 1,2 C 24,1 km/h (4 Bft)
09.03.2016 15:00 5,8 C 62 % 1008,0 hPa 0,0 l/m 10,0 km/h (2 Bft) O-NO 61 5 min 0,000 mm 1,4 UV-I 434 W/m -0,9 C 3,0 C 22,5 km/h (4 Bft)
09.03.2016 15:05 5,6 C 63 % 1008,0 hPa 0,0 l/m 11,2 km/h (2 Bft) O 97 5 min 0,228 mm 1,3 UV-I 342 W/m -0,9 C 1,9 C 22,5 km/h (4 Bft)
09.03.2016 15:10 5,8 C 61 % 1008,0 hPa 0,0 l/m 14,7 km/h (3 Bft) O 82 5 min 0,000 mm 1,3 UV-I 436 W/m -1,1 C 0,2 C 24,1 km/h (4 Bft)
09.03.2016 15:15 5,7 C 61 % 1008,0 hPa 0,0 l/m 15,0 km/h (3 Bft) O 92 5 min 0,000 mm 1,3 UV-I 435 W/m -1,2 C -0,1 C 24,1 km/h (4 Bft)
09.03.2016 15:20 5,6 C 62 % 1007,8 hPa 0,0 l/m 14,4 km/h (3 Bft) O 80 5 min 0,000 mm 1,3 UV-I 402 W/m -1,1 C 0,1 C 27,4 km/h (4 Bft)
09.03.2016 15:25 5,8 C 61 % 1007,8 hPa 0,0 l/m 8,6 km/h (2 Bft) O-NO 66 5 min 0,000 mm 1,2 UV-I 406 W/m -1,1 C 4,0 C 17,7 km/h (3 Bft)
09.03.2016 15:30 5,8 C 59 % 1007,9 hPa 0,0 l/m 12,9 km/h (3 Bft) O-SO 119 5 min 0,000 mm 1,2 UV-I 396 W/m -1,6 C 1,2 C 22,5 km/h (4 Bft)
09.03.2016 15:35 5,9 C 59 % 1007,8 hPa 0,0 l/m 13,6 km/h (3 Bft) O 88 5 min 0,000 mm 1,1 UV-I 386 W/m -1,5 C 0,9 C 24,1 km/h (4 Bft)
09.03.2016 15:40 5,7 C 59 % 1007,8 hPa 0,0 l/m 14,9 km/h (3 Bft) O-NO 69 5 min 0,000 mm 1,1 UV-I 362 W/m -1,7 C -0,0 C 24,1 km/h (4 Bft)
09.03.2016 15:45 5,8 C 59 % 1007,8 hPa 0,0 l/m 10,3 km/h (2 Bft) O-SO 105 5 min 0,000 mm 1,0 UV-I 358 W/m -1,6 C 2,8 C 20,9 km/h (4 Bft)
09.03.2016 15:50 6,3 C 57 % 1007,8 hPa 0,0 l/m 8,4 km/h (2 Bft) O-NO 67 5 min 0,000 mm 1,0 UV-I 360 W/m -1,6 C 4,7 C 17,7 km/h (3 Bft)
09.03.2016 15:55 6,1 C 55 % 1007,8 hPa 0,0 l/m 12,6 km/h (3 Bft) O-NO 71 5 min 0,000 mm 0,9 UV-I 347 W/m -2,2 C 1,7 C 25,7 km/h (4 Bft)
09.03.2016 16:00 5,9 C 56 % 1007,7 hPa 0,0 l/m 12,1 km/h (2 Bft) NO 43 5 min 0,000 mm 0,9 UV-I 335 W/m -2,2 C 1,7 C 20,9 km/h (4 Bft)
09.03.2016 16:05 5,8 C 53 % 1007,8 hPa 0,0 l/m 13,9 km/h (3 Bft) O-NO 77 5 min 0,203 mm 0,8 UV-I 320 W/m -3,0 C 0,6 C 24,1 km/h (4 Bft)
09.03.2016 16:10 5,7 C 55 % 1007,8 hPa 0,0 l/m 13,9 km/h (3 Bft) O-SO 115 5 min 0,000 mm 0,8 UV-I 310 W/m -2,6 C 0,5 C 24,1 km/h (4 Bft)
09.03.2016 16:15 5,8 C 56 % 1007,8 hPa 0,0 l/m 11,8 km/h (2 Bft) NO 51 5 min 0,000 mm 0,8 UV-I 302 W/m -2,3 C 1,8 C 25,7 km/h (4 Bft)
09.03.2016 16:20 5,9 C 55 % 1007,7 hPa 0,0 l/m 10,5 km/h (2 Bft) O-NO 77 5 min 0,000 mm 0,7 UV-I 286 W/m -2,4 C 2,7 C 24,1 km/h (4 Bft)
09.03.2016 16:25 5,8 C 55 % 1007,8 hPa 0,0 l/m 12,8 km/h (3 Bft) O-SO 119 5 min 0,000 mm 0,7 UV-I 271 W/m -2,5 C 1,2 C 25,7 km/h (4 Bft)
09.03.2016 16:30 5,6 C 55 % 1007,8 hPa 0,0 l/m 12,0 km/h (2 Bft) O-SO 112 5 min 0,000 mm 0,6 UV-I 262 W/m -2,7 C 1,4 C 24,1 km/h (4 Bft)
09.03.2016 16:35 5,5 C 55 % 1007,8 hPa 0,0 l/m 12,8 km/h (3 Bft) O 92 5 min 0,000 mm 0,6 UV-I 251 W/m -2,8 C 0,9 C 25,7 km/h (4 Bft)
09.03.2016 16:40 5,5 C 54 % 1007,8 hPa 0,0 l/m 9,0 km/h (2 Bft) O-SO 118 5 min 0,000 mm 0,6 UV-I 239 W/m -3,1 C 3,3 C 17,7 km/h (3 Bft)
09.03.2016 16:45 5,3 C 56 % 1007,8 hPa 0,0 l/m 11,3 km/h (2 Bft) O 85 5 min 0,000 mm 0,5 UV-I 217 W/m -2,8 C 1,5 C 22,5 km/h (4 Bft)
09.03.2016 16:50 5,2 C 56 % 1007,9 hPa 0,0 l/m 12,2 km/h (2 Bft) O-NO 57 5 min 0,000 mm 0,5 UV-I 197 W/m -2,8 C 0,9 C 24,1 km/h (4 Bft)
09.03.2016 16:55 5,2 C 57 % 1007,8 hPa 0,0 l/m 13,0 km/h (3 Bft) O-NO 78 5 min 0,000 mm 0,5 UV-I 190 W/m -2,6 C 0,4 C 22,5 km/h (4 Bft)
09.03.2016 17:00 5,1 C 57 % 1007,8 hPa 0,0 l/m 12,8 km/h (3 Bft) O-SO 112 5 min 0,000 mm 0,0 UV-I 169 W/m -2,7 C 0,4 C 22,5 km/h (4 Bft)
09.03.2016 17:05 5,1 C 58 % 1007,9 hPa 0,0 l/m 9,5 km/h (2 Bft) NO 49 5 min 0,153 mm 0,0 UV-I 158 W/m -2,5 C 2,5 C 17,7 km/h (3 Bft)
09.03.2016 17:10 5,2 C 59 % 1007,9 hPa 0,0 l/m 6,1 km/h (2 Bft) O-NO 59 5 min 0,000 mm 0,0 UV-I 139 W/m -2,1 C 5,2 C 17,7 km/h (3 Bft)
09.03.2016 17:15 5,2 C 58 % 1007,9 hPa 0,0 l/m 9,7 km/h (2 Bft) O 91 5 min 0,000 mm 0,0 UV-I 126 W/m -2,4 C 2,5 C 17,7 km/h (3 Bft)
09.03.2016 17:20 5,1 C 59 % 1007,9 hPa 0,0 l/m 9,7 km/h (2 Bft) O 98 5 min 0,000 mm 0,0 UV-I 114 W/m -2,2 C 2,4 C 17,7 km/h (3 Bft)
09.03.2016 17:25 5,0 C 59 % 1007,9 hPa 0,0 l/m 10,3 km/h (2 Bft) O 92 5 min 0,000 mm 0,0 UV-I 96 W/m -2,3 C 1,9 C 17,7 km/h (3 Bft)
09.03.2016 17:30 4,9 C 60 % 1008,0 hPa 0,0 l/m 9,7 km/h (2 Bft) O 92 5 min 0,000 mm 0,0 UV-I 89 W/m -2,2 C 2,2 C 20,9 km/h (4 Bft)
09.03.2016 17:35 4,9 C 60 % 1007,9 hPa 0,0 l/m 7,1 km/h (2 Bft) O 83 5 min 0,000 mm 0,0 UV-I 79 W/m -2,2 C 4,3 C 14,5 km/h (3 Bft)
09.03.2016 17:40 4,9 C 61 % 1007,9 hPa 0,0 l/m 8,0 km/h (2 Bft) N 5 5 min 0,000 mm 0,0 UV-I 69 W/m -2,0 C 3,5 C 16,1 km/h (3 Bft)
09.03.2016 17:45 4,8 C 61 % 1007,9 hPa 0,0 l/m 8,2 km/h (2 Bft) NO 52 5 min 0,000 mm 0,0 UV-I 52 W/m -2,1 C 3,2 C 16,1 km/h (3 Bft)
09.03.2016 17:50 4,7 C 62 % 1008,0 hPa 0,0 l/m 6,6 km/h (2 Bft) O-SO 112 5 min 0,000 mm 0,0 UV-I 42 W/m -1,9 C 4,5 C 14,5 km/h (3 Bft)
09.03.2016 17:55 4,7 C 62 % 1008,1 hPa 0,0 l/m 6,0 km/h (2 Bft) O 82 5 min 0,000 mm 0,0 UV-I 36 W/m -1,9 C 4,7 C 12,9 km/h (3 Bft)
09.03.2016 18:00 4,6 C 63 % 1008,1 hPa 0,0 l/m 4,4 km/h (1 Bft) O-NO 61 5 min 0,000 mm 0,0 UV-I 26 W/m -1,8 C 4,6 C 12,9 km/h (3 Bft)
09.03.2016 18:05 4,4 C 63 % 1008,1 hPa 0,0 l/m 8,5 km/h (2 Bft) O 90 5 min 0,076 mm 0,0 UV-I 21 W/m -2,0 C 2,6 C 16,1 km/h (3 Bft)
09.03.2016 18:10 4,3 C 64 % 1008,2 hPa 0,0 l/m 2,7 km/h (1 Bft) O 100 5 min 0,000 mm 0,0 UV-I 14 W/m -1,9 C 4,3 C 11,3 km/h (2 Bft)
09.03.2016 18:15 4,2 C 64 % 1008,3 hPa 0,0 l/m 3,7 km/h (1 Bft) O-NO 76 0 min 0,000 mm 0,0 UV-I 10 W/m -2,0 C 4,2 C 11,3 km/h (2 Bft)
09.03.2016 18:20 4,1 C 65 % 1008,3 hPa 0,0 l/m 2,4 km/h (1 Bft) O 86 0 min 0,000 mm 0,0 UV-I 6 W/m -1,9 C 4,1 C 12,9 km/h (3 Bft)
09.03.2016 18:25 3,9 C 65 % 1008,4 hPa 0,0 l/m 3,6 km/h (1 Bft) O-NO 78 0 min 0,000 mm 0,0 UV-I 1 W/m -2,1 C 3,9 C 12,9 km/h (3 Bft)
09.03.2016 18:30 3,8 C 65 % 1008,4 hPa 0,0 l/m 2,4 km/h (1 Bft) O-SO 103 0 min 0,000 mm 0,0 UV-I 0 W/m -2,2 C 3,8 C 11,3 km/h (2 Bft)
09.03.2016 18:35 3,7 C 66 % 1008,4 hPa 0,0 l/m 0,6 km/h (0 Bft) O-NO 71 0 min 0,000 mm 0,0 UV-I 0 W/m -2,0 C 3,7 C 8,0 km/h (2 Bft)
09.03.2016 18:40 3,6 C 67 % 1008,5 hPa 0,0 l/m 0,0 km/h (0 Bft) NO 54 0 min 0,000 mm 0,0 UV-I 0 W/m -1,9 C 3,6 C 0,0 km/h (0 Bft)
09.03.2016 18:45 3,4 C 68 % 1008,5 hPa 0,0 l/m 0,0 km/h (0 Bft) NO 46 0 min 0,000 mm 0,0 UV-I 0 W/m -1,9 C 3,4 C 0,0 km/h (0 Bft)
09.03.2016 18:50 3,2 C 69 % 1008,5 hPa 0,0 l/m 0,0 km/h (0 Bft) NO 34 0 min 0,000 mm 0,0 UV-I 0 W/m -1,9 C 3,2 C 0,0 km/h (0 Bft)
09.03.2016 18:55 3,0 C 69 % 1008,5 hPa 0,0 l/m 0,0 km/h (0 Bft) NO 34 0 min 0,000 mm 0,0 UV-I 0 W/m -2,1 C 3,0 C 0,0 km/h (0 Bft)
09.03.2016 19:00 2,8 C 70 % 1008,7 hPa 0,0 l/m 0,0 km/h (0 Bft) NO 34 0 min 0,000 mm 0,0 UV-I 0 W/m -2,1 C 2,8 C 0,0 km/h (0 Bft)
09.03.2016 19:05 2,6 C 71 % 1008,7 hPa 0,0 l/m 0,0 km/h (0 Bft) N-NO 32 0 min 0,000 mm 0,0 UV-I 0 W/m -2,1 C 2,6 C 0,0 km/h (0 Bft)
09.03.2016 19:10 2,4 C 72 % 1008,7 hPa 0,0 l/m 0,0 km/h (0 Bft) NO 34 0 min 0,000 mm 0,0 UV-I 0 W/m -2,1 C 2,4 C 0,0 km/h (0 Bft)
09.03.2016 19:15 2,3 C 72 % 1008,7 hPa 0,0 l/m 0,0 km/h (0 Bft) NO 34 0 min 0,000 mm 0,0 UV-I 0 W/m -2,2 C 2,3 C 0,0 km/h (0 Bft)
09.03.2016 19:20 2,1 C 73 % 1008,7 hPa 0,0 l/m 0,0 km/h (0 Bft) NO 34 0 min 0,000 mm 0,0 UV-I 0 W/m -2,2 C 2,1 C 0,0 km/h (0 Bft)
09.03.2016 19:25 1,9 C 73 % 1008,8 hPa 0,0 l/m 0,0 km/h (0 Bft) NO 34 0 min 0,000 mm 0,0 UV-I 0 W/m -2,4 C 1,9 C 0,0 km/h (0 Bft)
09.03.2016 19:30 1,8 C 74 % 1008,8 hPa 0,0 l/m 0,0 km/h (0 Bft) NO 34 0 min 0,000 mm 0,0 UV-I 0 W/m -2,3 C 1,8 C 0,0 km/h (0 Bft)
09.03.2016 19:35 1,7 C 75 % 1008,8 hPa 0,0 l/m 0,0 km/h (0 Bft) NO 34 0 min 0,000 mm 0,0 UV-I 0 W/m -2,2 C 1,7 C 0,0 km/h (0 Bft)
09.03.2016 19:40 1,6 C 76 % 1008,8 hPa 0,0 l/m 0,0 km/h (0 Bft) NO 34 0 min 0,000 mm 0,0 UV-I 0 W/m -2,2 C 1,6 C 0,0 km/h (0 Bft)
09.03.2016 19:45 1,4 C 76 % 1008,9 hPa 0,0 l/m 0,0 km/h (0 Bft) NO 34 0 min 0,000 mm 0,0 UV-I 0 W/m -2,4 C 1,4 C 0,0 km/h (0 Bft)
09.03.2016 19:50 1,3 C 77 % 1008,8 hPa 0,0 l/m 0,0 km/h (0 Bft) NO 34 0 min 0,000 mm 0,0 UV-I 0 W/m -2,3 C 1,3 C 0,0 km/h (0 Bft)
09.03.2016 19:55 1,3 C 77 % 1008,9 hPa 0,0 l/m 0,0 km/h (0 Bft) NO 34 0 min 0,000 mm 0,0 UV-I 0 W/m -2,3 C 1,3 C 0,0 km/h (0 Bft)
09.03.2016 20:00 1,2 C 77 % 1009,0 hPa 0,0 l/m 0,0 km/h (0 Bft) NO 34 0 min 0,000 mm 0,0 UV-I 0 W/m -2,4 C 1,2 C 0,0 km/h (0 Bft)
09.03.2016 20:05 1,1 C 78 % 1009,0 hPa 0,0 l/m 0,0 km/h (0 Bft) NO 34 0 min 0,025 mm 0,0 UV-I 0 W/m -2,3 C 1,1 C 0,0 km/h (0 Bft)
09.03.2016 20:10 0,9 C 78 % 1009,0 hPa 0,0 l/m 0,0 km/h (0 Bft) NO 34 0 min 0,000 mm 0,0 UV-I 0 W/m -2,5 C 0,9 C 0,0 km/h (0 Bft)
09.03.2016 20:15 0,9 C 79 % 1009,0 hPa 0,0 l/m 0,0 km/h (0 Bft) NO 34 0 min 0,000 mm 0,0 UV-I 0 W/m -2,3 C 0,9 C 0,0 km/h (0 Bft)
09.03.2016 20:20 0,8 C 80 % 1009,1 hPa 0,0 l/m 0,0 km/h (0 Bft) NO 34 0 min 0,000 mm 0,0 UV-I 0 W/m -2,2 C 0,8 C 0,0 km/h (0 Bft)
09.03.2016 20:25 0,7 C 80 % 1009,1 hPa 0,0 l/m 0,0 km/h (0 Bft) NO 34 0 min 0,000 mm 0,0 UV-I 0 W/m -2,3 C 0,7 C 0,0 km/h (0 Bft)
09.03.2016 20:30 0,6 C 80 % 1009,1 hPa 0,0 l/m 0,0 km/h (0 Bft) NO 34 0 min 0,000 mm 0,0 UV-I 0 W/m -2,4 C 0,6 C 0,0 km/h (0 Bft)
09.03.2016 20:35 0,4 C 80 % 1009,1 hPa 0,0 l/m 0,0 km/h (0 Bft) NO 34 0 min 0,000 mm 0,0 UV-I 0 W/m -2,6 C 0,4 C 0,0 km/h (0 Bft)
09.03.2016 20:40 0,4 C 81 % 1009,2 hPa 0,0 l/m 0,0 km/h (0 Bft) NO 34 0 min 0,000 mm 0,0 UV-I 0 W/m -2,5 C 0,4 C 0,0 km/h (0 Bft)
09.03.2016 20:45 0,3 C 81 % 1009,1 hPa 0,0 l/m 0,0 km/h (0 Bft) NO 34 0 min 0,000 mm 0,0 UV-I 0 W/m -2,6 C 0,3 C 0,0 km/h (0 Bft)
09.03.2016 20:50 0,3 C 82 % 1009,2 hPa 0,0 l/m 0,0 km/h (0 Bft) NO 34 0 min 0,000 mm 0,0 UV-I 0 W/m -2,4 C 0,3 C 0,0 km/h (0 Bft)
09.03.2016 20:55 0,1 C 81 % 1009,2 hPa 0,0 l/m 0,0 km/h (0 Bft) NO 34 0 min 0,000 mm 0,0 UV-I 0 W/m -2,8 C 0,1 C 0,0 km/h (0 Bft)
09.03.2016 21:00 -0,1 C 83 % 1009,3 hPa 0,0 l/m 0,0 km/h (0 Bft) NO 34 0 min 0,000 mm 0,0 UV-I 0 W/m -2,6 C -0,1 C 0,0 km/h (0 Bft)
09.03.2016 21:05 -0,3 C 84 % 1009,2 hPa 0,0 l/m 0,0 km/h (0 Bft) NO 34 0 min 0,000 mm 0,0 UV-I 0 W/m -2,7 C -0,3 C 0,0 km/h (0 Bft)
09.03.2016 21:10 -0,4 C 84 % 1009,2 hPa 0,0 l/m 0,0 km/h (0 Bft) NO 34 0 min 0,000 mm 0,0 UV-I 0 W/m -2,8 C -0,4 C 0,0 km/h (0 Bft)
09.03.2016 21:15 -0,5 C 85 % 1009,3 hPa 0,0 l/m 0,0 km/h (0 Bft) NO 34 0 min 0,000 mm 0,0 UV-I 0 W/m -2,7 C -0,5 C 0,0 km/h (0 Bft)
09.03.2016 21:20 -0,7 C 85 % 1009,4 hPa 0,0 l/m 0,0 km/h (0 Bft) NO 34 0 min 0,000 mm 0,0 UV-I 0 W/m -2,9 C -0,7 C 0,0 km/h (0 Bft)
09.03.2016 21:25 -0,8 C 85 % 1009,4 hPa 0,0 l/m 0,0 km/h (0 Bft) NO 34 0 min 0,000 mm 0,0 UV-I 0 W/m -3,0 C -0,8 C 0,0 km/h (0 Bft)
09.03.2016 21:30 -0,9 C 85 % 1009,4 hPa 0,0 l/m 0,0 km/h (0 Bft) NO 34 0 min 0,000 mm 0,0 UV-I 0 W/m -3,1 C -0,9 C 0,0 km/h (0 Bft)
09.03.2016 21:35 -0,9 C 86 % 1009,4 hPa 0,0 l/m 0,0 km/h (0 Bft) NO 34 0 min 0,000 mm 0,0 UV-I 0 W/m -2,9 C -0,9 C 0,0 km/h (0 Bft)
09.03.2016 21:40 -1,1 C 87 % 1009,4 hPa 0,0 l/m 0,0 km/h (0 Bft) NO 34 0 min 0,000 mm 0,0 UV-I 0 W/m -3,0 C -1,1 C 0,0 km/h (0 Bft)
09.03.2016 21:45 -1,1 C 87 % 1009,4 hPa 0,0 l/m 0,0 km/h (0 Bft) NO 34 0 min 0,000 mm 0,0 UV-I 0 W/m -3,0 C -1,1 C 0,0 km/h (0 Bft)
09.03.2016 21:50 -1,2 C 87 % 1009,4 hPa 0,0 l/m 0,0 km/h (0 Bft) NO 34 0 min 0,000 mm 0,0 UV-I 0 W/m -3,1 C -1,2 C 0,0 km/h (0 Bft)
09.03.2016 21:55 -1,2 C 87 % 1009,5 hPa 0,0 l/m 0,0 km/h (0 Bft) NO 34 0 min 0,000 mm 0,0 UV-I 0 W/m -3,1 C -1,2 C 0,0 km/h (0 Bft)
09.03.2016 22:00 -1,1 C 88 % 1009,5 hPa 0,0 l/m 0,0 km/h (0 Bft) NO 34 0 min 0,000 mm 0,0 UV-I 0 W/m -2,8 C -1,1 C 0,0 km/h (0 Bft)
09.03.2016 22:05 -1,1 C 87 % 1009,6 hPa 0,0 l/m 0,0 km/h (0 Bft) NO 34 0 min 0,000 mm 0,0 UV-I 0 W/m -3,0 C -1,1 C 0,0 km/h (0 Bft)
09.03.2016 22:10 -1,1 C 87 % 1009,6 hPa 0,0 l/m 0,0 km/h (0 Bft) NO 34 0 min 0,000 mm 0,0 UV-I 0 W/m -3,0 C -1,1 C 0,0 km/h (0 Bft)
09.03.2016 22:15 -1,1 C 87 % 1009,6 hPa 0,0 l/m 0,0 km/h (0 Bft) NO 34 0 min 0,000 mm 0,0 UV-I 0 W/m -3,0 C -1,1 C 0,0 km/h (0 Bft)
09.03.2016 22:20 -1,1 C 88 % 1009,7 hPa 0,0 l/m 0,0 km/h (0 Bft) NO 34 0 min 0,000 mm 0,0 UV-I 0 W/m -2,8 C -1,1 C 0,0 km/h (0 Bft)
09.03.2016 22:25 -1,1 C 88 % 1009,7 hPa 0,0 l/m 0,0 km/h (0 Bft) NO 34 0 min 0,000 mm 0,0 UV-I 0 W/m -2,8 C -1,1 C 0,0 km/h (0 Bft)
09.03.2016 22:30 -1,1 C 88 % 1009,8 hPa 0,0 l/m 0,0 km/h (0 Bft) NO 34 0 min 0,000 mm 0,0 UV-I 0 W/m -2,8 C -1,1 C 0,0 km/h (0 Bft)
09.03.2016 22:35 -1,1 C 88 % 1009,8 hPa 0,0 l/m 0,0 km/h (0 Bft) NO 34 0 min 0,000 mm 0,0 UV-I 0 W/m -2,8 C -1,1 C 0,0 km/h (0 Bft)
09.03.2016 22:40 -1,2 C 87 % 1009,9 hPa 0,0 l/m 0,0 km/h (0 Bft) NO 34 0 min 0,000 mm 0,0 UV-I 0 W/m -3,1 C -1,2 C 0,0 km/h (0 Bft)
09.03.2016 22:45 -1,3 C 88 % 1009,9 hPa 0,0 l/m 0,0 km/h (0 Bft) NO 34 0 min 0,000 mm 0,0 UV-I 0 W/m -3,0 C -1,3 C 0,0 km/h (0 Bft)
09.03.2016 22:50 -1,3 C 88 % 1009,8 hPa 0,0 l/m 0,0 km/h (0 Bft) NO 34 0 min 0,000 mm 0,0 UV-I 0 W/m -3,0 C -1,3 C 0,0 km/h (0 Bft)
09.03.2016 22:55 -1,4 C 88 % 1009,9 hPa 0,0 l/m 0,0 km/h (0 Bft) NO 34 0 min 0,000 mm 0,0 UV-I 0 W/m -3,1 C -1,4 C 0,0 km/h (0 Bft)
09.03.2016 23:00 -1,5 C 88 % 1010,0 hPa 0,0 l/m 0,0 km/h (0 Bft) NO 34 0 min 0,000 mm 0,0 UV-I 0 W/m -3,2 C -1,5 C 0,0 km/h (0 Bft)
09.03.2016 23:05 -1,5 C 89 % 1010,1 hPa 0,0 l/m 0,0 km/h (0 Bft) NO 34 0 min 0,000 mm 0,0 UV-I 0 W/m -3,1 C -1,5 C 0,0 km/h (0 Bft)
09.03.2016 23:10 -1,6 C 88 % 1010,1 hPa 0,0 l/m 0,0 km/h (0 Bft) NO 34 0 min 0,000 mm 0,0 UV-I 0 W/m -3,3 C -1,6 C 0,0 km/h (0 Bft)
09.03.2016 23:15 -1,7 C 89 % 1010,1 hPa 0,0 l/m 0,0 km/h (0 Bft) NO 34 0 min 0,000 mm 0,0 UV-I 0 W/m -3,3 C -1,7 C 0,0 km/h (0 Bft)
09.03.2016 23:20 -1,7 C 89 % 1010,1 hPa 0,0 l/m 0,0 km/h (0 Bft) NO 34 0 min 0,000 mm 0,0 UV-I 0 W/m -3,3 C -1,7 C 0,0 km/h (0 Bft)
09.03.2016 23:25 -1,8 C 88 % 1010,2 hPa 0,0 l/m 0,0 km/h (0 Bft) NO 34 0 min 0,000 mm 0,0 UV-I 0 W/m -3,5 C -1,8 C 0,0 km/h (0 Bft)
09.03.2016 23:30 -1,8 C 90 % 1010,3 hPa 0,0 l/m 0,0 km/h (0 Bft) NO 34 0 min 0,000 mm 0,0 UV-I 0 W/m -3,2 C -1,8 C 0,0 km/h (0 Bft)
09.03.2016 23:35 -1,8 C 90 % 1010,4 hPa 0,0 l/m 0,0 km/h (0 Bft) NO 34 0 min 0,000 mm 0,0 UV-I 0 W/m -3,2 C -1,8 C 0,0 km/h (0 Bft)
09.03.2016 23:40 -1,9 C 89 % 1010,3 hPa 0,0 l/m 0,0 km/h (0 Bft) NO 34 0 min 0,000 mm 0,0 UV-I 0 W/m -3,5 C -1,9 C 0,0 km/h (0 Bft)
09.03.2016 23:45 -2,0 C 89 % 1010,4 hPa 0,0 l/m 0,0 km/h (0 Bft) NO 34 0 min 0,000 mm 0,0 UV-I 0 W/m -3,6 C -2,0 C 0,0 km/h (0 Bft)
09.03.2016 23:50 -2,1 C 89 % 1010,4 hPa 0,0 l/m 0,0 km/h (0 Bft) NO 34 0 min 0,000 mm 0,0 UV-I 0 W/m -3,7 C -2,1 C 0,0 km/h (0 Bft)
09.03.2016 23:55 -2,2 C 89 % 1010,5 hPa 0,0 l/m 0,0 km/h (0 Bft) NO 34 0 min 0,000 mm 0,0 UV-I 0 W/m -3,8 C -2,2 C 0,0 km/h (0 Bft)
_ Min-Zeit 02:40 16:05 16:00 - 00:00 - - - - - - 02:35 11:30 00:00
Minimum _ -3,3 C 53 % 1007,7 hPa - 0,0 km/h (0 Bft) - - - - - - -4,0 C -5,0 C 0,0 km/h (0 Bft)
_ Max-Zeit 15:50 04:00 00:05 00:00 15:15 - - 07:05 15:05 13:00 13:05 13:10 17:10 12:05
Maximum _ 6,3 C 96 % 1016,6 hPa 0,0 l/m 15,0 km/h
O (3 Bft)
- - 5 min 0,228 mm 2,4 UV-I 651 W/m 0,5 C 5,2 C 29,0 km/h
O (5 Bft)
Durchschnitt _ 0,7 C 83 % 1011,2 hPa #0,0 l/m 4,0 km/h (1 Bft) O - #5:30 h #1,295 mm 1,3 UV-I 225 W/m -2,1 C -0,4 C 8,8 km/h (2 Bft)